Location: D�rnast
(49.6426°N, 11.9755°E)
Time: 13:35:40
(UTC+00:00)

USA 281 - Pass Details

Date: 24 January 2021
Orbit: 1072 x 1086 km, 106.0° (Epoch: 22 February)

Event Time Altitude Azimuth Distance (km) Brightness Sun altitude
Exits shadow 18:07:16 24° 40° (NE) 2,094 4.3 -21.2°
Maximum altitude 18:07:17 24° 40° (NE) 2,094 4.3 -21.3°
Drops below altitude 10° 18:12:18 10° 350° (N) 2,940 5.6 -22.1°
Sets 18:15:19 0° 337° (NNW) 3,898 6.4 -22.5°
